Accueil
METAR-TAF:

METAR-TAF

Aéroports :

Orcas Island Airport

Eastsound, Washington, États-Unis

latitude: 48-42-29N, longitude: 122-54-37W, altitude: 9 m

Observation

Le bulletin a été fait il y a 8 minutes, à 04:55 UTC
Vent 12 kt de sud avec des rafales jusqu'à 17 kt
Température 8°C
Humidité 87%
Pression 1013 hPa
Visibilité: 16.1 km
Quelques nuages à une hauteur de 4800 ft
Quelques nuages à une hauteur de 5500 ft

METAR: KORS 190455Z AUTO 18012G17KT 10SM FEW048 FEW055 08/06 A2991 RMK AO2

Heure: 21:03 (05:03 UTC)


TAF: absent

Observations et prévisions météorologiques de plus de 4000 aéroports (messages METAR et TAF).

Les stations disponibles sont représentées par des disques jaunes et rouges sur la carte.

Passer la souris dessus pour voir le nom de la station.

Cliquer dessus pour voir les observations et prévisions météorologiques.

Pour changer de carte: cliquez sur les boutons verts avec une croix noire pour zoomer, sur le bouton vert avec un tiret pour effectuer un zoom arrière, ou sur les flèches vertes pour les cartes adjacentes.


METAR-TAF: